$Date,$Time,DM0201B,DM0203B,DM0205B,DM0207B,DM0209B
09/02/98,00:00:01,5,56,-30,22,952
09/02/98,00:05:01,5,56,-30,22,952
09/02/98,00:10:01,5,56,-30,24,952
09/02/98,00:15:01,5,56,-30,26,952
09/02/98,00:20:01,5,56,-30,26,952
09/02/98,00:25:01,5,56,-30,26,952
09/02/98,00:30:01,5,11,-30,26,952
09/02/98,00:35:01,38,342,-30,26,952
09/02/98,00:40:01,59,1,-30,26,952
09/02/98,00:45:01,78,11,-30,28,952
09/02/98,00:50:01,60,21,-30,28,952
09/02/98,00:55:01,43,11,-30,28,952
09/02/98,01:00:01,31,18,-30,30,952
09/02/98,01:05:01,37,18,-30,30,952
09/02/98,01:10:01,51,29,-30,30,952
09/02/98,01:15:01,41,33,-30,30,952
09/02/98,01:20:01,55,19,-30,32,952
09/02/98,01:25:01,68,20,-30,32,952
09/02/98,01:30:01,59,34,-30,32,952
09/02/98,01:35:01,61,24,-30,30,952
09/02/98,01:40:01,61,24,-30,28,952
09/02/98,01:45:01,74,27,-30,28,952
09/02/98,01:50:01,59,26,-30,30,952
09/02/98,01:55:01,77,26,-30,30,952
09/02/98,02:00:01,40,17,-30,30,952
09/02/98,02:05:01,55,26,-30,26,952
09/02/98,02:10:01,34,21,-30,24,952
09/02/98,02:15:01,17,11,-30,22,952
09/02/98,02:20:01,39,22,-30,22,952
09/02/98,02:25:01,38,26,-30,20,952
09/02/98,02:30:01,54,25,-30,20,952
09/02/98,02:35:01,19,25,-30,18,952
09/02/98,02:40:01,3,73,-30,18,952
09/02/98,02:45:01,20,52,-30,18,952
09/02/98,02:50:01,7,90,-30,16,952
09/02/98,02:55:01,7,90,-30,16,952
09/02/98,03:00:01,7,90,-30,14,952
09/02/98,03:05:01,7,90,-30,12,952
09/02/98,03:10:01,7,90,-30,12,952
09/02/98,03:15:01,7,90,-30,12,952
09/02/98,03:20:01,7,90,-30,12,952
09/02/98,03:25:01,28,149,-30,10,952
09/02/98,03:30:01,40,159,-30,10,952
09/02/98,03:35:01,27,159,-30,10,952
09/02/98,03:40:01,16,149,-30,10,952
09/02/98,03:45:01,5,149,-30,8,952
09/02/98,03:50:01,5,149,-30,8,952
09/02/98,03:55:01,11,151,-30,7,953
09/02/98,04:00:01,21,151,-30,7,953
09/02/98,04:05:01,32,161,-29,7,953
09/02/98,04:10:01,32,161,-29,7,953
09/02/98,04:15:01,43,161,-29,5,953
09/02/98,04:20:01,43,161,-29,5,953
09/02/98,04:25:01,43,151,-29,3,953
09/02/98,04:30:01,43,151,-29,3,953
09/02/98,04:35:01,42,152,-29,3,953
09/02/98,04:40:01,38,152,-29,3,953
09/02/98,04:45:01,36,152,-29,3,953
09/02/98,04:50:01,43,152,-29,1,953
09/02/98,04:55:01,43,152,-29,1,953
09/02/98,05:00:01,28,165,-29,1,953
09/02/98,05:05:01,18,165,-29,1,953
09/02/98,05:10:01,30,165,-29,1,953
09/02/98,05:15:01,20,165,-29,1,953
09/02/98,05:20:01,20,165,-30,1,953
09/02/98,05:25:01,8,155,-30,1,953
09/02/98,05:30:01,8,155,-30,1,953
09/02/98,05:35:01,25,155,-30,1,953
09/02/98,05:40:01,14,155,-30,1,953
09/02/98,05:45:01,39,155,-30,1,953
09/02/98,05:50:01,39,155,-30,1,953
09/02/98,05:55:01,39,155,-30,1,953
09/02/98,06:00:01,29,155,-30,1,953
09/02/98,06:05:01,30,155,-30,1,953
09/02/98,06:10:01,30,155,-30,1,953
09/02/98,06:15:01,40,155,-30,1,953
09/02/98,06:20:01,20,165,-30,1,953
09/02/98,06:25:01,33,165,-30,1,953
09/02/98,06:30:01,33,175,-30,1,953
09/02/98,06:35:01,22,175,-30,1,953
09/02/98,06:40:01,32,175,-30,1,953
09/02/98,06:45:01,32,175,-30,1,953
09/02/98,06:50:01,45,175,-30,1,953
09/02/98,06:55:01,25,175,-30,1,953
09/02/98,07:00:01,37,175,-30,1,953
09/02/98,07:05:01,53,185,-30,1,953
09/02/98,07:10:01,43,185,-30,1,953
09/02/98,07:15:01,55,185,-30,1,953
09/02/98,07:20:01,55,185,-30,1,953
09/02/98,07:25:01,44,185,-30,1,953
09/02/98,07:30:01,55,185,-30,1,953
09/02/98,07:35:01,65,185,-30,1,953
09/02/98,07:40:01,65,185,-30,1,953
09/02/98,07:45:01,54,185,-30,1,953
09/02/98,07:50:01,54,185,-30,1,953
09/02/98,07:55:01,54,175,-30,1,953
09/02/98,08:00:01,43,175,-30,1,953
09/02/98,08:05:01,21,175,-30,1,953
09/02/98,08:10:01,16,159,-30,1,953
09/02/98,08:15:01,9,159,-30,1,953
09/02/98,08:20:01,31,159,-30,1,953
09/02/98,08:25:01,31,159,-30,1,953
09/02/98,08:30:01,31,159,-30,1,953
09/02/98,08:35:01,21,159,-30,1,953
09/02/98,08:40:01,21,159,-30,1,953
09/02/98,08:45:01,21,159,-30,1,953
09/02/98,08:50:01,21,159,-30,1,953
09/02/98,08:55:01,43,180,-30,1,953
09/02/98,09:00:01,43,180,-30,1,953
09/02/98,09:05:01,31,180,-30,1,953
09/02/98,09:10:01,41,180,-30,1,953
09/02/98,09:15:01,31,180,-30,1,953
09/02/98,09:20:01,31,180,-30,1,953
09/02/98,09:25:01,31,180,-30,1,953
09/02/98,09:30:01,31,180,-30,1,953
09/02/98,09:35:01,31,180,-30,1,953
09/02/98,09:40:01,20,180,-30,1,953
09/02/98,09:45:01,18,180,-30,1,953
09/02/98,09:50:01,8,180,-30,1,953
09/02/98,09:55:01,8,180,-30,1,953
09/02/98,10:00:01,8,180,-30,1,953
09/02/98,10:05:01,8,180,-30,1,955
09/02/98,10:10:01,8,180,-31,1,955
09/02/98,10:15:01,8,169,-30,1,955
09/02/98,10:20:01,8,27,-31,1,955
09/02/98,10:25:01,8,27,-31,1,955
09/02/98,10:30:01,8,27,-31,1,955
09/02/98,10:35:01,8,27,-31,1,955
09/02/98,10:40:01,8,27,-31,1,955
09/02/98,10:45:01,8,82,-31,1,955
09/02/98,10:50:01,8,151,-31,1,955
09/02/98,10:55:01,8,151,-30,1,955
09/02/98,11:00:01,8,151,-30,1,955
09/02/98,11:05:01,8,151,-30,1,955
09/02/98,11:10:01,8,52,-30,1,955
09/02/98,11:15:01,8,42,-31,1,955
09/02/98,11:20:01,8,42,-31,1,955
09/02/98,11:25:01,8,126,-30,1,955
09/02/98,11:30:01,8,126,-30,1,955
09/02/98,11:35:01,8,126,-31,1,955
09/02/98,11:40:01,8,126,-30,1,955
09/02/98,11:45:01,8,126,-31,1,955
09/02/98,11:50:01,8,69,-30,1,955
09/02/98,11:55:01,8,69,-31,1,955
09/02/98,12:00:01,8,59,-30,1,955
09/02/98,12:05:01,8,59,-30,1,955
09/02/98,12:10:01,8,59,-30,1,955
09/02/98,12:15:01,8,59,-30,1,955
09/02/98,12:20:01,8,59,-30,1,955
09/02/98,12:25:01,8,39,-30,1,955
09/02/98,12:30:01,8,39,-30,1,955
09/02/98,12:35:01,8,39,-30,1,955
09/02/98,12:40:01,8,39,-30,1,955
09/02/98,12:45:01,8,39,-30,1,955
09/02/98,12:50:01,8,39,-30,1,955
09/02/98,12:55:01,8,39,-30,1,955
09/02/98,13:00:01,8,39,-30,1,955
09/02/98,13:05:01,8,39,-30,1,955
09/02/98,13:10:01,8,39,-30,1,955
09/02/98,13:15:01,8,39,-30,1,955
09/02/98,13:20:01,8,39,-30,1,955
09/02/98,13:25:01,8,39,-30,1,955
09/02/98,13:30:01,8,29,-30,1,955
09/02/98,13:35:01,8,29,-30,1,955
09/02/98,13:40:01,8,29,-30,1,955
09/02/98,13:45:01,8,29,-30,1,955
09/02/98,13:50:01,8,19,-30,1,955
09/02/98,13:55:01,18,332,-30,1,955
09/02/98,14:00:01,18,332,-30,1,955
09/02/98,14:05:01,6,322,-30,1,955
09/02/98,14:10:01,24,301,-30,1,955
09/02/98,14:15:01,24,301,-30,1,955
09/02/98,14:20:01,24,280,-30,1,955
09/02/98,14:25:01,23,280,-30,1,955
09/02/98,14:30:01,23,280,-30,1,955
09/02/98,14:35:01,23,280,-30,1,955
09/02/98,14:40:01,23,280,-30,1,955
09/02/98,14:45:01,13,280,-30,1,955
09/02/98,14:50:01,13,280,-30,1,955
09/02/98,14:55:01,23,280,-30,1,955
09/02/98,15:00:01,33,280,-30,1,955
09/02/98,15:05:01,33,270,-30,1,955
09/02/98,15:10:01,33,270,-30,1,955
09/02/98,15:15:01,33,270,-30,1,955
09/02/98,15:20:01,23,270,-30,1,955
09/02/98,15:25:01,23,260,-30,1,955
09/02/98,15:30:01,13,250,-30,1,955
09/02/98,15:35:01,15,240,-30,1,955
09/02/98,15:40:01,3,240,-30,1,955
09/02/98,15:45:01,14,240,-30,1,955
09/02/98,15:50:01,14,240,-30,1,955
09/02/98,15:55:01,14,240,-30,1,955
09/02/98,16:00:01,14,240,-30,1,955
09/02/98,16:05:01,19,228,-30,1,955
09/02/98,16:10:01,30,215,-30,1,955
09/02/98,16:15:01,30,215,-30,1,955
09/02/98,16:20:01,40,215,-30,1,955
09/02/98,16:25:01,50,193,-30,1,955
09/02/98,16:30:01,50,193,-30,1,955
09/02/98,16:35:01,40,193,-30,1,955
09/02/98,16:40:01,30,193,-30,1,955
09/02/98,16:45:01,30,193,-30,1,955
09/02/98,16:50:01,30,206,-30,1,955
09/02/98,16:55:01,20,206,-30,1,955
09/02/98,17:00:01,34,206,-30,1,955
09/02/98,17:05:01,34,206,-30,1,955
09/02/98,17:10:01,13,206,-30,1,955
09/02/98,17:15:01,35,206,-30,1,955
09/02/98,17:20:01,35,195,-30,1,955
09/02/98,17:25:01,25,195,-30,1,955
09/02/98,17:30:01,35,195,-30,1,955
09/02/98,17:35:01,35,195,-30,1,957
09/02/98,17:40:01,35,185,-30,1,957
09/02/98,17:45:01,45,185,-30,1,957
09/02/98,17:50:01,23,185,-30,1,957
09/02/98,17:55:01,13,185,-30,1,957
09/02/98,18:00:01,12,185,-30,1,957
09/02/98,18:05:01,12,185,-30,1,957
09/02/98,18:10:01,12,185,-30,1,957
09/02/98,18:15:01,12,185,-30,1,957
09/02/98,18:20:01,23,185,-30,1,957
09/02/98,18:25:01,23,185,-30,1,957
09/02/98,18:30:01,23,185,-30,1,957
09/02/98,18:35:01,48,185,-30,1,957
09/02/98,18:40:01,37,184,-30,1,957
09/02/98,18:45:01,37,184,-30,1,957
09/02/98,18:50:01,62,184,-30,1,957
09/02/98,18:55:01,63,194,-30,1,957
09/02/98,19:00:01,78,197,-30,1,957
09/02/98,19:05:01,66,197,-30,1,957
09/02/98,19:10:01,56,197,-30,1,957
09/02/98,19:15:01,72,207,-30,1,957
09/02/98,19:20:01,72,207,-30,1,957
09/02/98,19:25:01,62,195,-30,1,957
09/02/98,19:30:01,62,195,-30,1,957
09/02/98,19:35:01,62,195,-30,1,957
09/02/98,19:40:01,72,195,-30,1,957
09/02/98,19:45:01,70,195,-30,1,957
09/02/98,19:50:01,70,195,-30,1,957
09/02/98,19:55:01,60,195,-30,1,957
09/02/98,20:00:01,57,195,-30,1,957
09/02/98,20:05:01,85,195,-30,1,957
09/02/98,20:10:01,73,195,-30,1,957
09/02/98,20:15:01,73,195,-30,1,957
09/02/98,20:20:01,73,195,-30,1,957
09/02/98,20:25:01,73,195,-30,1,957
09/02/98,20:30:01,93,195,-30,1,957
09/02/98,20:35:01,80,197,-30,1,957
09/02/98,20:40:01,80,197,-30,1,957
09/02/98,20:45:01,104,197,-30,1,957
09/02/98,20:50:01,87,197,-30,1,957
09/02/98,20:55:01,85,197,-30,1,957
09/02/98,21:00:01,85,197,-30,1,957
09/02/98,21:05:01,71,197,-29,1,957
09/02/98,21:10:01,72,197,-29,1,957
09/02/98,21:15:01,44,182,-29,3,957
09/02/98,21:20:01,18,206,-29,3,957
09/02/98,21:25:01,38,194,-29,5,957
09/02/98,21:30:01,26,206,-29,5,957
09/02/98,21:35:01,38,206,-29,7,957
09/02/98,21:40:01,40,206,-29,9,957
09/02/98,21:45:01,28,213,-29,9,957
09/02/98,21:50:01,35,213,-29,9,957
09/02/98,21:55:01,19,213,-29,11,957
09/02/98,22:00:01,16,213,-29,13,957
09/02/98,22:05:01,13,178,-29,13,957
09/02/98,22:10:01,19,189,-29,13,957
09/02/98,22:15:01,19,189,-29,13,957
09/02/98,22:20:01,9,189,-29,13,957
09/02/98,22:25:01,19,189,-29,15,957
09/02/98,22:30:01,7,179,-29,17,957
09/02/98,22:35:01,13,105,-29,19,957
09/02/98,22:40:01,4,146,-29,21,957
09/02/98,22:45:01,5,112,-29,21,957
09/02/98,22:50:01,18,42,-29,21,957
09/02/98,22:55:01,33,18,-29,23,957
09/02/98,23:00:01,37,18,-29,25,957
09/02/98,23:05:01,27,18,-29,27,957
09/02/98,23:10:01,40,18,-29,27,957
09/02/98,23:15:01,40,18,-29,27,957
09/02/98,23:20:01,30,8,-29,27,957
09/02/98,23:25:01,30,8,-28,27,959
09/02/98,23:30:01,31,357,-28,25,959
09/02/98,23:35:01,19,357,-28,27,959
09/02/98,23:40:01,43,357,-28,31,959
09/02/98,23:45:01,43,357,-28,35,959
09/02/98,23:50:01,46,357,-28,37,959
09/02/98,23:55:01,46,3,-28,39,959
09/03/98,00:00:01,59,3,-28,43,959
